N5RPG Weather Reports


time (UTC)temp
C
wind
direction
speed
KPH
gust
KPH
rain 1hr
cm
rain 24hr
cm
rain mn
cm
humidity
%
barometer
mb
20260510000039 26 95 3.2 6.4 0.00 0.48 0.48 79 1010.4
20260509235536 26 133 8.0 8.0 0.00 0.48 0.48 78 1010.4
20260509235032 27 137 8.0 8.0 0.00 0.48 0.48 77 1010.2
20260509234528 27 1 8.0 8.0 0.00 0.48 0.48 75 1010.4
20260509234027 27 85 1.6 1.6 0.00 0.48 0.48 75 1010.0
20260509233524 27 116 3.2 4.8 0.00 0.48 0.48 75 1010.3
20260509233021 27 135 6.4 8.0 0.00 0.48 0.48 74 1010.0
20260509232518 27 143 9.7 9.7 0.00 0.48 0.48 73 1010.2
20260509232014 27 16 3.2 6.4 0.00 0.48 0.48 75 1010.2
20260509231510 27 54 4.8 9.7 0.00 0.48 0.48 76 1010.1
20260509231009 27 89 3.2 6.4 0.00 0.48 0.48 75 1010.1
20260509230505 27 66 3.2 8.0 0.00 0.48 0.48 74 1010.4
20260509230001 27 58 3.2 6.4 0.00 0.48 0.48 75 1010.1
20260509225457 28 23 4.8 8.0 0.00 0.48 0.48 73 1010.0
20260509224953 28 72 4.8 6.4 0.00 0.48 0.48 72 1010.0
20260509224449 28 321 4.8 6.4 0.00 0.48 0.48 71 1010.1
20260509223946 27 80 3.2 6.4 0.00 0.48 0.48 73 1010.0
20260509223442 27 80 3.2 6.4 0.00 0.48 0.48 73 1009.9
20260509222940 27 337 3.2 6.4 0.00 0.48 0.48 74 1009.9
20260509222435 28 45 4.8 4.8 0.00 0.48 0.48 73 1009.7
20260509221931 28 100 3.2 4.8 0.00 0.48 0.48 73 1009.8
20260509221428 28 124 6.4 9.7 0.00 0.48 0.48 73 1009.9
20260509220924 27 38 3.2 4.8 0.00 0.48 0.48 73 1009.8
20260509220420 28 133 4.8 6.4 0.00 0.48 0.48 72 1009.8
20260509215916 28 129 4.8 8.0 0.00 0.48 0.48 71 1010.0
20260509215412 28 116 1.6 3.2 0.00 0.48 0.48 72 1009.9
20260509214910 27 52 4.8 6.4 0.00 0.48 0.48 76 1010.2
20260509214407 26 99 4.8 6.4 0.00 0.48 0.48 77 1010.0
20260509213904 27 136 4.8 6.4 0.00 0.48 0.48 76 1010.1
20260509213359 27 134 6.4 6.4 0.00 0.48 0.48 75 1010.1
20260509212857 27 125 3.2 6.4 0.00 0.48 0.48 74 1010.3
20260509212354 27 82 6.4 6.4 0.00 0.48 0.48 74 1010.2
20260509211850 27 133 4.8 4.8 0.00 0.48 0.48 73 1010.3
20260509211346 27 27 4.8 6.4 0.00 0.48 0.48 76 1010.3
20260509210843 27 16 4.8 6.4 0.00 0.48 0.48 75 1010.3
20260509210340 27 127 4.8 8.0 0.00 0.48 0.48 77 1010.4
20260509205840 27 39 6.4 8.0 0.00 0.48 0.48 76 1010.4
20260509205334 27 79 1.6 4.8 0.00 0.48 0.48 77 1010.4
20260509204831 27 57 3.2 8.0 0.00 0.48 0.48 76 1010.4
20260509204328 27 358 3.2 3.2 0.00 0.48 0.48 76 1010.5
20260509203824 27 228 1.6 6.4 0.00 0.48 0.48 77 1010.6
20260509203321 27 27 3.2 6.4 0.00 0.48 0.48 76 1010.7
20260509202817 27 6 6.4 8.0 0.00 0.48 0.48 75 1010.6
20260509202314 27 64 1.6 9.7 0.00 0.48 0.48 78 1010.6
20260509201813 27 25 1.6 6.4 0.00 0.48 0.48 78 1010.6
20260509201310 26 134 8.0 9.7 0.00 0.48 0.48 79 1010.7
20260509200806 26 78 4.8 17.7 0.00 0.48 0.48 81 1010.8
20260509200302 26 79 3.2 9.7 0.00 0.48 0.48 80 1010.9
20260509195759 26 35 8.0 8.0 0.05 0.48 0.48 78 1011.2
20260509195254 27 343 3.2 4.8 0.00 0.46 0.46 76 1011.0
20260509194753 27 60 6.4 6.4 0.00 0.46 0.46 78 1011.0
20260509194250 27 41 3.2 3.2 0.00 0.46 0.46 77 1011.1
20260509193747 27 104 4.8 4.8 0.00 0.46 0.46 78 1011.1
20260509193247 26 103 0.0 9.7 0.00 0.46 0.46 78 1011.2
20260509192743 26 6 0.0 3.2 0.00 0.46 0.46 80 1011.1
20260509192243 26 123 1.6 3.2 0.00 0.46 0.46 81 1011.5
20260509191739 26 170 1.6 4.8 0.00 0.46 0.46 83 1011.5
20260509191236 26 55 4.8 9.7 0.00 0.46 0.46 82 1011.3
20260509190732 26 66 3.2 6.4 0.00 0.46 0.46 83 1011.3
20260509190229 25 144 1.6 6.4 0.00 0.46 0.46 83 1011.7
20260509185727 25 95 1.6 6.4 0.05 0.46 0.46 85 1011.7
20260509185223 25 76 3.2 4.8 0.05 0.46 0.46 85 1011.6
20260509184720 25 25 1.6 4.8 0.00 0.46 0.46 86 1011.7
20260509184218 25 118 3.2 6.4 0.00 0.46 0.46 86 1011.6
20260509183714 25 119 4.8 9.7 0.00 0.46 0.46 84 1011.8
20260509183209 25 218 0.0 4.8 0.00 0.46 0.46 86 1011.9
20260509182705 25 122 3.2 4.8 0.00 0.46 0.46 86 1011.7
20260509182203 24 185 3.2 4.8 0.00 0.46 0.46 86 1012.0
20260509181700 25 139 1.6 3.2 0.05 0.46 0.46 86 1011.9
20260509181157 25 248 0.0 3.2 0.05 0.46 0.46 86 1012.1
20260509180654 24 44 0.0 3.2 0.00 0.46 0.46 86 1012.1
20260509180150 24 200 0.0 3.2 0.00 0.46 0.46 87 1012.1
20260509175646 24 131 0.0 3.2 0.00 0.46 0.46 87 1012.1
20260509175143 24 304 0.0 1.6 0.00 0.46 0.46 86 1012.2
20260509174639 24 266 0.0 3.2 0.05 0.46 0.46 87 1012.2
20260509174140 24 117 0.0 3.2 0.05 0.46 0.46 87 1012.3
20260509173636 24 122 1.6 4.8 0.00 0.43 0.43 87 1012.2
20260509173131 23 147 1.6 4.8 0.00 0.43 0.43 89 1012.1
20260509172629 23 115 4.8 6.4 0.00 0.43 0.43 89 1012.4
20260509172124 23 146 1.6 3.2 0.00 0.43 0.43 90 1012.6
20260509171621 23 202 0.0 3.2 0.00 0.43 0.43 90 1012.2
20260509171117 23 179 0.0 3.2 0.05 0.43 0.43 91 1012.4
20260509170613 23 153 0.0 4.8 0.05 0.43 0.43 90 1012.4
20260509170110 23 219 1.6 3.2 0.00 0.43 0.43 91 1012.5
20260509165608 23 50 0.0 3.2 0.00 0.43 0.43 90 1012.5
20260509165103 23 21 0.0 3.2 0.00 0.43 0.43 91 1012.4
20260509164600 22 150 3.2 3.2 0.00 0.43 0.43 91 1012.3
20260509164055 22 171 3.2 4.8 0.00 0.43 0.43 91 1012.4
20260509163554 23 76 0.0 1.6 0.00 0.43 0.43 91 1012.6
20260509163054 22 92 1.6 3.2 0.00 0.43 0.43 91 1012.4
20260509162552 22 186 1.6 4.8 0.00 0.43 0.43 92 1012.3
20260509162047 22 158 1.6 3.2 0.00 0.43 0.43 93 1012.5
20260509161544 22 121 1.6 4.8 0.05 0.43 0.43 94 1012.2
20260509161039 22 174 1.6 3.2 0.05 0.43 0.43 96 1012.1
20260509160535 21 117 3.2 3.2 0.00 0.43 0.43 97 1012.2
20260509160030 21 97 3.2 3.2 0.00 0.43 0.43 98 1012.2
20260509155527 21 184 0.0 4.8 0.00 0.43 0.43 98 1012.2
20260509155023 21 89 3.2 3.2 0.00 0.43 0.43 98 1012.2
20260509154519 21 185 1.6 4.8 0.00 0.43 0.43 98 1012.2
20260509154017 21 158 3.2 3.2 0.00 0.43 0.43 98 1011.9
20260509153514 20 142 1.6 3.2 0.00 0.43 0.43 98 1012.0
20260509153011 20 37 0.0 3.2 0.00 0.43 0.43 98 1011.8
20260509152506 20 12 0.0 3.2 0.00 0.43 0.43 98 1012.0
20260509152003 20 201 0.0 1.6 0.05 0.43 0.43 98 1012.0
20260509151500 20 57 3.2 4.8 0.05 0.43 0.43 98 1012.0
20260509150958 20 143 3.2 3.2 0.00 0.41 0.41 98 1012.0
20260509150455 20 354 0.0 3.2 0.00 0.41 0.41 98 1011.9
20260509145953 20 31 3.2 6.4 0.00 0.41 0.41 98 1011.9
20260509145448 20 144 0.0 1.6 0.00 0.41 0.41 98 1011.9
20260509144944 20 113 0.0 1.6 0.00 0.41 0.41 98 1012.0
20260509144441 20 116 0.0 4.8 0.00 0.41 0.41 98 1012.2
20260509143938 20 103 0.0 0.0 0.00 0.41 0.41 98 1012.2
20260509143435 20 34 3.2 3.2 0.05 0.41 0.41 98 1012.2
20260509142931 20 154 3.2 3.2 0.05 0.41 0.41 98 1012.2
20260509142428 20 138 0.0 3.2 0.00 0.41 0.41 98 1012.1
20260509141924 20 89 0.0 3.2 0.00 0.41 0.41 98 1012.0
20260509141421 20 132 3.2 4.8 0.00 0.41 0.41 98 1012.3
20260509140918 19 91 3.2 4.8 0.00 0.41 0.41 98 1012.1
20260509140414 19 89 0.0 3.2 0.00 0.41 0.41 98 1012.5
20260509135913 19 23 0.0 1.6 0.00 0.41 0.41 98 1012.5
20260509135410 19 37 3.2 3.2 0.00 0.41 0.41 98 1012.3
20260509134907 19 124 0.0 1.6 0.05 0.41 0.41 98 1012.4
20260509134404 19 119 0.0 1.6 0.05 0.41 0.41 98 1012.5
20260509133901 19 322 0.0 1.6 0.00 0.38 0.38 98 1012.4
20260509133358 19 74 0.0 3.2 0.00 0.38 0.38 98 1012.5
20260509132856 19 28 1.6 3.2 0.00 0.38 0.38 98 1012.5
20260509132354 19 112 3.2 3.2 0.00 0.38 0.38 98 1012.4
20260509131851 19 142 0.0 3.2 0.00 0.38 0.38 98 1012.3
20260509131348 19 120 3.2 4.8 0.00 0.38 0.38 98 1012.4
20260509130844 19 109 0.0 3.2 0.05 0.38 0.38 98 1012.3
20260509130340 19 132 3.2 3.2 0.05 0.38 0.38 98 1012.3
20260509125837 19 140 3.2 4.8 0.00 0.38 0.38 98 1012.3
20260509125333 19 63 0.0 3.2 0.00 0.38 0.38 98 1012.3
20260509124829 18 136 0.0 3.2 0.00 0.38 0.38 98 1012.1
20260509124326 19 126 0.0 3.2 0.00 0.38 0.38 98 1012.1
20260509123825 18 92 1.6 3.2 0.00 0.38 0.38 98 1012.0
20260509123322 19 17 1.6 3.2 0.05 0.38 0.38 98 1011.9
20260509122817 18 60 3.2 3.2 0.05 0.38 0.38 98 1012.0
20260509122314 18 128 0.0 3.2 0.00 0.38 0.38 98 1011.7
20260509121811 18 269 0.0 3.2 0.00 0.38 0.38 98 1011.9
20260509121308 18 119 0.0 3.2 0.00 0.38 0.38 98 1011.7
20260509120807 18 126 0.0 3.2 0.00 0.38 0.38 98 1011.5
20260509120304 18 125 3.2 4.8 0.00 0.38 0.38 98 1011.6
20260509115802 18 131 6.4 6.4 0.00 0.38 0.38 98 1011.8
20260509115259 18 122 1.6 3.2 0.05 0.38 0.38 98 1011.7
20260509114756 18 35 4.8 4.8 0.00 0.36 0.36 98 1011.7
20260509114255 18 17 1.6 3.2 0.00 0.36 0.36 98 1011.7
20260509113754 18 64 4.8 6.4 0.00 0.36 0.36 98 1011.7
20260509113250 19 15 3.2 3.2 0.00 0.36 0.36 98 1011.5
20260509112747 19 124 3.2 4.8 0.00 0.36 0.36 98 1011.5
20260509112244 19 28 1.6 3.2 0.00 0.36 0.36 98 1011.3
20260509111742 19 121 1.6 3.2 0.00 0.36 0.36 98 1011.4
20260509111238 19 77 1.6 4.8 0.00 0.36 0.36 98 1011.4
20260509110735 19 43 4.8 6.4 0.00 0.36 0.36 98 1011.1
20260509110232 19 315 0.0 3.2 0.05 0.36 0.36 98 1011.1
20260509105730 19 53 1.6 3.2 0.05 0.36 0.36 98 1010.8
20260509105227 19 220 1.6 1.6 0.00 0.36 0.36 98 1010.9
20260509104724 19 119 1.6 3.2 0.00 0.36 0.36 98 1010.8
20260509104221 19 133 1.6 3.2 0.00 0.36 0.36 98 1010.8
20260509103720 20 261 0.0 0.0 0.00 0.36 0.36 98 1010.9
20260509103216 20 217 0.0 1.6 0.00 0.36 0.36 98 1010.6
20260509102715 20 142 0.0 3.2 0.00 0.36 0.36 98 1010.7
20260509102211 20 224 0.0 0.0 0.00 0.36 0.36 98 1010.7
20260509101707 19 107 0.0 3.2 0.00 0.36 0.36 98 1010.9
20260509101204 19 123 0.0 3.2 0.00 0.36 0.36 98 1010.9
20260509100701 19 198 0.0 1.6 0.05 0.36 0.36 98 1011.1
20260509100158 19 119 0.0 1.6 0.05 0.36 0.36 98 1010.9
20260509095655 19 133 3.2 3.2 0.00 0.33 0.33 98 1010.8
20260509095153 19 202 0.0 0.0 0.00 0.33 0.33 98 1011.1
20260509094649 19 123 0.0 1.6 0.00 0.33 0.33 98 1010.7
20260509094146 19 180 1.6 1.6 0.00 0.33 0.33 98 1010.5
20260509093644 19 146 0.0 1.6 0.00 0.33 0.33 98 1010.5
20260509093141 19 118 1.6 3.2 0.00 0.33 0.33 98 1010.6
20260509092639 19 95 0.0 1.6 0.00 0.33 0.33 97 1010.7
20260509092137 19 50 3.2 3.2 0.05 0.33 0.33 97 1010.7
20260509091635 19 133 0.0 3.2 0.05 0.33 0.33 97 1010.8
20260509091131 19 0 0.0 0.0 0.00 0.33 0.33 97 1010.8
20260509090629 19 28 0.0 3.2 0.00 0.33 0.33 97 1010.8
20260509090126 19 120 1.6 3.2 0.00 0.33 0.33 97 1011.0
20260509085623 19 217 0.0 3.2 0.00 0.33 0.33 97 1010.8
20260509085119 19 207 1.6 3.2 0.00 0.33 0.33 97 1010.7
20260509084617 19 202 1.6 3.2 0.00 0.33 0.33 97 1010.8
20260509084113 19 34 0.0 3.2 0.05 0.33 0.33 97 1010.9
20260509083611 19 267 1.6 3.2 0.05 0.33 0.33 97 1010.9
20260509083107 19 277 1.6 6.4 0.00 0.33 0.33 97 1011.0
20260509082605 18 150 0.0 3.2 0.00 0.33 0.33 97 1010.8
20260509082101 18 253 6.4 6.4 0.00 0.33 0.33 97 1010.8
20260509081559 18 241 4.8 8.0 0.00 0.33 0.33 97 1010.8
20260509081055 19 250 1.6 3.2 0.00 0.33 0.33 97 1010.8
20260509080554 19 321 0.0 3.2 0.05 0.33 0.33 97 1010.9
20260509080051 19 269 0.0 1.6 0.00 0.30 0.30 97 1010.8
20260509075549 18 157 0.0 1.6 0.00 0.30 0.30 97 1010.6
20260509075047 18 37 0.0 0.0 0.00 0.30 0.30 97 1010.8
20260509074543 18 131 0.0 3.2 0.00 0.30 0.30 97 1010.8
20260509074040 18 180 0.0 3.2 0.05 0.30 0.30 97 1010.9
20260509073536 18 189 0.0 1.6 0.05 0.30 0.30 96 1010.8
20260509073033 18 237 0.0 1.6 0.00 0.30 0.30 96 1011.1
20260509072529 18 103 0.0 3.2 0.00 0.30 0.30 96 1011.1
20260509072026 18 142 3.2 3.2 0.05 0.30 0.30 96 1010.9
20260509071523 18 134 3.2 6.4 0.05 0.30 0.30 96 1011.0
20260509071020 19 176 6.4 9.7 0.00 0.28 0.28 96 1011.1
20260509070518 20 174 3.2 6.4 0.00 0.28 0.28 96 1010.9
20260509070014 20 85 0.0 8.0 0.05 0.28 0.28 96 1011.1
20260509065509 20 117 6.4 9.7 0.05 0.28 0.28 96 1011.0
20260509065006 20 235 3.2 6.4 0.00 0.28 0.28 96 1011.1
20260509064503 20 230 1.6 4.8 0.05 0.28 0.28 96 1010.4
20260509064001 20 173 4.8 11.3 0.05 0.28 0.28 95 1010.1
20260509063456 20 114 8.0 9.7 0.05 0.28 0.28 95 1011.3
20260509062954 20 175 1.6 4.8 0.05 0.25 0.25 95 1012.0
20260509062451 20 118 4.8 8.0 0.13 0.25 0.25 94 1012.4
20260509061949 20 194 3.2 4.8 1.19 0.25 0.25 93 1013.3
20260509061446 20 203 4.8 8.0 1.45 0.23 0.23 92 1013.2
20260509060943 20 355 3.2 4.8 0.30 0.05 0.05 91 1013.6
20260509060440 21 247 3.2 4.8 0.00 0.00 0.00 90 1013.8
20260509055935 21 329 1.6 4.8 0.00 0.00 0.00 91 1013.2
20260509055431 21 339 0.0 3.2 0.00 0.00 0.00 91 1012.9
20260509054927 21 9 3.2 3.2 0.00 0.00 0.00 91 1012.9
20260509054424 21 124 0.0 1.6 0.00 0.00 0.00 91 1012.7
20260509053923 21 180 0.0 1.6 0.00 0.00 0.00 91 1013.0
20260509053420 20 198 1.6 3.2 0.00 0.00 0.00 91 1012.8
20260509052918 20 208 0.0 0.0 0.00 0.00 0.00 91 1012.8
20260509052415 20 138 0.0 1.6 0.00 0.00 0.00 91 1012.5
20260509051913 20 37 0.0 1.6 0.00 0.00 0.00 91 1012.5
20260509051411 20 143 0.0 0.0 0.00 0.00 0.00 91 1012.3
20260509050907 20 124 0.0 3.2 0.00 0.00 0.00 90 1012.2
20260509050404 20 129 0.0 1.6 0.00 0.00 0.00 90 1012.4
20260509045901 20 76 0.0 3.2 0.00 0.15 0.15 90 1012.4
20260509045357 20 142 0.0 3.2 0.00 0.15 0.15 90 1012.3
20260509044855 20 129 1.6 3.2 0.00 0.15 0.15 90 1012.3
20260509044353 20 125 3.2 4.8 0.00 0.15 0.15 90 1012.5
20260509043849 20 144 1.6 4.8 0.00 0.15 0.15 90 1012.5
20260509043345 20 113 0.0 3.2 0.00 0.15 0.15 89 1012.1
20260509042841 20 148 1.6 3.2 0.00 0.15 0.15 89 1012.3
20260509042337 20 83 3.2 4.8 0.00 0.15 0.15 89 1012.2
20260509041834 20 111 3.2 3.2 0.00 0.15 0.15 88 1012.2
20260509041331 20 122 3.2 3.2 0.00 0.15 0.15 88 1012.3
20260509040829 20 118 3.2 4.8 0.00 0.15 0.15 88 1012.1
20260509040327 20 114 3.2 6.4 0.00 0.15 0.15 87 1012.2
20260509035823 20 92 3.2 6.4 0.00 0.15 0.15 87 1012.1
20260509035321 20 117 4.8 4.8 0.00 0.15 0.15 86 1012.0
20260509034817 20 80 0.0 4.8 0.00 0.15 0.15 86 1012.0
20260509034315 20 103 3.2 8.0 0.00 0.15 0.15 86 1012.1
20260509033811 20 133 3.2 3.2 0.00 0.15 0.15 85 1011.9
20260509033309 20 151 3.2 3.2 0.00 0.15 0.15 85 1012.0
20260509032805 20 118 3.2 3.2 0.00 0.15 0.15 85 1011.9
20260509032306 20 123 3.2 3.2 0.00 0.15 0.15 86 1011.9
20260509031800 20 93 1.6 3.2 0.00 0.15 0.15 87 1011.8
20260509031257 20 202 0.0 0.0 0.00 0.15 0.15 87 1011.8
20260509030755 20 176 0.0 0.0 0.00 0.15 0.15 86 1011.6
20260509030253 20 144 0.0 3.2 0.00 0.15 0.15 86 1011.7
20260509025749 20 102 0.0 0.0 0.00 0.15 0.15 85 1011.5
20260509025244 20 186 0.0 1.6 0.00 0.15 0.15 85 1011.4
20260509024740 20 41 1.6 3.2 0.00 0.15 0.15 85 1011.3
20260509024236 20 30 0.0 3.2 0.00 0.15 0.15 85 1011.2
20260509023734 20 89 0.0 0.0 0.00 0.15 0.15 84 1010.9
20260509023231 20 180 0.0 3.2 0.00 0.15 0.15 84 1010.9
20260509022727 20 178 0.0 1.6 0.00 0.15 0.15 83 1010.8
20260509022225 20 124 0.0 1.6 0.00 0.15 0.15 83 1010.9
20260509021721 20 176 0.0 1.6 0.00 0.15 0.15 82 1010.7
20260509021219 20 130 0.0 0.0 0.00 0.15 0.15 81 1010.7
20260509020717 20 124 0.0 1.6 0.00 0.15 0.15 80 1010.5
20260509020213 21 150 1.6 1.6 0.00 0.15 0.15 79 1010.6
20260509015712 21 38 0.0 1.6 0.00 0.15 0.15 79 1010.8
20260509015210 21 129 0.0 1.6 0.00 0.15 0.15 78 1010.7
20260509014706 21 23 1.6 3.2 0.00 0.15 0.15 78 1010.4
20260509014203 21 23 1.6 3.2 0.00 0.15 0.15 78 1010.4
20260509013659 21 106 0.0 0.0 0.00 0.15 0.15 77 1010.3
20260509013155 21 166 0.0 3.2 0.00 0.15 0.15 76 1010.2
20260509012652 21 88 1.6 3.2 0.00 0.15 0.15 76 1010.4
20260509012149 21 25 1.6 3.2 0.00 0.15 0.15 76 1010.6
20260509011647 21 103 3.2 3.2 0.00 0.15 0.15 75 1010.6
20260509011144 21 159 3.2 3.2 0.00 0.15 0.15 74 1010.4
20260509010641 22 95 1.6 4.8 0.00 0.15 0.15 71 1010.5
20260509010137 22 95 1.6 4.8 0.00 0.15 0.15 71 1010.5
20260509005635 22 95 1.6 4.8 0.00 0.15 0.15 71 1010.6
20260509005131 22 5 3.2 3.2 0.00 0.15 0.15 71 1010.3
20260509004627 22 262 3.2 4.8 0.00 0.15 0.15 70 1010.3
20260509004125 22 300 0.0 9.7 0.00 0.15 0.15 70 1009.9
20260509003623 22 258 3.2 4.8 0.00 0.15 0.15 70 1009.8
20260509003120 23 275 4.8 4.8 0.00 0.15 0.15 70 1009.9
20260509002617 23 151 3.2 4.8 0.00 0.15 0.15 69 1009.7
20260509002114 23 183 1.6 8.0 0.00 0.15 0.15 69 1009.5
20260509001612 23 128 4.8 9.7 0.00 0.15 0.15 68 1009.5
20260509001107 23 352 1.6 11.3 0.00 0.15 0.15 68 1009.3
20260509000606 23 68 3.2 8.0 0.00 0.15 0.15 67 1009.4